TOM8KT LCLK-EGCC

Flight info

Callsign TOM8KT
Flight time N/A
Altitude 36000
Route PHA M31 GENOS DCT PEDER DCT EVENO DCT BENEM UN127 ULKAN DCT RIKSO UN128 FSK UL608 DISOR DCT LONTA UL608 DOLEV/N0459F380 DCT GENLU DCT PODOB DCT DEVUL DCT DOL DCT ERKIR DCT BABEG DCT LIRSU DCT DENUT L610 RAPIX DCT ELVOS
Aircraft B38M/M-SDE1FGHILORVWXY/HB1

Departure

Time 2026-05-01 14:25
Airport Larnaca International Airport (LCLK)

Arrival

Time N/A
Airport Manchester Airport (EGCC)
Time Latitude Longitude Altitude Speed Heading
2026-05-01 13:54 34.87112 33.60990 23 ft 0 kts 225°
2026-05-01 14:13 34.87117 33.60997 25 ft 3 kts 225°
2026-05-01 14:13 34.87131 33.61014 25 ft 3 kts 236°
2026-05-01 14:14 34.87137 33.61034 25 ft 3 kts 278°
2026-05-01 14:14 34.87134 33.61055 25 ft 3 kts 261°
2026-05-01 14:14 34.87137 33.61067 26 ft 3 kts 192°
2026-05-01 14:14 34.87148 33.61064 24 ft 2 kts 137°
2026-05-01 14:15 34.87157 33.61054 25 ft 3 kts 135°
2026-05-01 14:15 34.87166 33.61042 23 ft 0 kts 135°
2026-05-01 14:17 34.87165 33.61044 23 ft 1 kts 135°
2026-05-01 14:18 34.87156 33.61055 26 ft 3 kts 135°
2026-05-01 14:18 34.87135 33.61080 24 ft 6 kts 135°
2026-05-01 14:18 34.87088 33.61136 23 ft 13 kts 135°
2026-05-01 14:18 34.87038 33.61196 23 ft 17 kts 135°
2026-05-01 14:19 34.86934 33.61327 22 ft 11 kts 108°
2026-05-01 14:19 34.86978 33.61408 19 ft 14 kts 44°
2026-05-01 14:19 34.87048 33.61493 19 ft 15 kts 45°
2026-05-01 14:19 34.87123 33.61585 25 ft 15 kts 45°
2026-05-01 14:20 34.87205 33.61685 21 ft 18 kts 45°
2026-05-01 14:20 34.87393 33.61914 20 ft 21 kts 45°
2026-05-01 14:20 34.87501 33.62045 18 ft 16 kts 45°
2026-05-01 14:21 34.87504 33.62150 20 ft 13 kts 105°
2026-05-01 14:21 34.87546 33.62242 19 ft 15 kts 45°
2026-05-01 14:21 34.87625 33.62339 19 ft 17 kts 45°
2026-05-01 14:22 34.87813 33.62568 25 ft 22 kts 45°
2026-05-01 14:22 34.87883 33.62653 26 ft 21 kts 45°
2026-05-01 14:22 34.87993 33.62788 22 ft 23 kts 45°
2026-05-01 14:22 34.88110 33.62930 23 ft 24 kts 45°
2026-05-01 14:23 34.88237 33.63085 20 ft 27 kts 45°
2026-05-01 14:23 34.88368 33.63244 19 ft 22 kts 45°
2026-05-01 14:23 34.88444 33.63350 20 ft 12 kts 72°
2026-05-01 14:23 34.88406 33.63429 22 ft 12 kts 133°
2026-05-01 14:24 34.88342 33.63502 23 ft 14 kts 142°
2026-05-01 14:24 34.88262 33.63475 18 ft 0 kts 225°
2026-05-01 14:24 34.88162 33.63354 19 ft 55 kts 225°
2026-05-01 14:25 34.87718 33.62811 24 ft 123 kts 225°
2026-05-01 14:25 34.86983 33.61928 183 ft 163 kts 224°
2026-05-01 14:25 34.86155 33.60897 811 ft 176 kts 225°
2026-05-01 14:25 34.85349 33.59847 1774 ft 168 kts 228°
2026-05-01 14:26 34.84495 33.58735 2196 ft 194 kts 230°
2026-05-01 14:26 34.82409 33.56031 3121 ft 240 kts 229°
2026-05-01 14:26 34.81218 33.54498 3712 ft 258 kts 228°
2026-05-01 14:27 34.79964 33.52890 4548 ft 263 kts 227°
2026-05-01 14:27 34.78700 33.51267 5496 ft 266 kts 228°
2026-05-01 14:27 34.77441 33.49650 6302 ft 273 kts 228°
2026-05-01 14:28 34.74789 33.46252 8117 ft 275 kts 229°
2026-05-01 14:28 34.73463 33.44555 9008 ft 278 kts 229°
2026-05-01 14:28 34.72131 33.42850 9909 ft 278 kts 229°
2026-05-01 14:28 34.70771 33.41109 10446 ft 292 kts 229°
2026-05-01 14:29 34.69356 33.39276 10759 ft 311 kts 233°
2026-05-01 14:29 34.68320 33.36909 11235 ft 318 kts 256°
2026-05-01 14:30 34.68279 33.28752 13305 ft 331 kts 272°
2026-05-01 14:30 34.68377 33.25950 14043 ft 334 kts 272°
2026-05-01 14:30 34.68484 33.23110 14727 ft 337 kts 273°
2026-05-01 14:31 34.68709 33.17359 16069 ft 344 kts 273°
2026-05-01 14:31 34.68824 33.14448 16713 ft 347 kts 273°
2026-05-01 14:31 34.68940 33.11512 17401 ft 349 kts 273°
2026-05-01 14:31 34.69055 33.08558 18053 ft 351 kts 273°
2026-05-01 14:32 34.69171 33.05579 18614 ft 354 kts 273°
2026-05-01 14:32 34.69287 33.02579 19187 ft 356 kts 273°
2026-05-01 14:32 34.69403 32.99562 19750 ft 358 kts 273°
2026-05-01 14:32 34.69518 32.96532 20317 ft 360 kts 273°
2026-05-01 14:33 34.69633 32.93491 20865 ft 362 kts 273°
2026-05-01 14:33 34.69749 32.90422 21424 ft 364 kts 273°
2026-05-01 14:33 34.69863 32.87344 21958 ft 365 kts 273°
2026-05-01 14:33 34.69978 32.84259 22528 ft 366 kts 273°
2026-05-01 14:34 34.70091 32.81196 23050 ft 369 kts 273°
2026-05-01 14:34 34.70206 32.78065 23558 ft 371 kts 273°
2026-05-01 14:34 34.70320 32.74929 23997 ft 373 kts 273°
2026-05-01 14:34 34.70434 32.71772 24428 ft 374 kts 273°
2026-05-01 14:35 34.70547 32.68608 24860 ft 376 kts 273°
2026-05-01 14:35 34.70661 32.65426 25271 ft 378 kts 273°
2026-05-01 14:35 34.70773 32.62227 25679 ft 379 kts 273°
2026-05-01 14:35 34.70886 32.59025 26109 ft 380 kts 273°
2026-05-01 14:36 34.70998 32.55802 26547 ft 381 kts 273°
2026-05-01 14:36 34.71109 32.52575 26926 ft 384 kts 273°
2026-05-01 14:36 34.71075 32.49323 27294 ft 386 kts 266°
2026-05-01 14:36 34.70864 32.46075 27689 ft 388 kts 268°
2026-05-01 14:37 34.70678 32.42795 28036 ft 390 kts 268°
2026-05-01 14:37 34.70502 32.39505 28400 ft 391 kts 268°
2026-05-01 14:37 34.70331 32.36199 28729 ft 393 kts 268°
2026-05-01 14:37 34.70160 32.32863 29078 ft 395 kts 268°
2026-05-01 14:38 34.69988 32.29523 29452 ft 396 kts 268°
2026-05-01 14:38 34.69818 32.26215 29779 ft 398 kts 268°
2026-05-01 14:38 34.69643 32.22844 30086 ft 400 kts 268°
2026-05-01 14:38 34.69467 32.19463 30362 ft 402 kts 268°
2026-05-01 14:39 34.69288 32.16060 30634 ft 404 kts 268°
2026-05-01 14:39 34.69108 32.12643 30909 ft 405 kts 268°
2026-05-01 14:39 34.68928 32.09229 31260 ft 405 kts 268°
2026-05-01 14:39 34.68747 32.05823 31654 ft 403 kts 268°
2026-05-01 14:40 34.68565 32.02435 32077 ft 401 kts 268°